Location: Carri�res
(48.9069°N, 2.1792°E)
Time: 04:18:43
(UTC+00:00)

Cosmos 1680 Rocket - Pass Details

Date: 17 January 2021
Orbit: 760 x 780 km, 74.1° (Epoch: 26 February)

Event Time Altitude Azimuth Distance (km) Brightness Sun altitude
Rises 18:22:43 0° 341° (NNW) 3,257 6.9 -18.8°
Reaches altitude 10° 18:25:21 10° 351° (N) 2,322 6.0 -19.2°
Enters shadow 18:29:35 32° 44° (NE) 1,289 4.2 -19.9°
